Temp
-5 -5 -5 -5 -5 -5 -6 -6 -5 -6 -6 -6 -6 -6 -6 -6 -6 -7 -6 -7 -5 -6 -6 -5 -5 -6 -5 -6 -7 -6 -6 -6 -6 -6 -6 -6 -6 -6 -6 -6 -6 -6 -6
-5 -5 -5 -5 -5 -5 -5 -5 -5 -5 -5 -6 -6 -6 -6 -6 -6 -6 -4 -6 -5 -6 -6 -6 -6 -6 -6 -5 -6 -6 -6 -6 -6 -6 -5 -5 -5 -5 -5 -5 -5 -6 -6
-4 -5 -5 -5 -5 -5 -5 -5 -6 -5 -5 -5 -6 -6 -6 -6 -6 -5 -7 -5 -5 -6 -6 -6 -5 -6 -6 -6 -5 -6 -7 -6 -6 -6 -6 -5 -5 -5 -5 -5 -5 -5 -5
-5 -5 -5 -5 -5 -5 -5 -5 -6 -6 -5 -5 -5 -6 -6 -5 -5 -6 -6 -5 -6 -6 -7 -7 -6 -6 -5 -6 -6 -6 -6 -6 -6 -6 -6 -6 -6 -5 -5 -5 -5 -5 -5
-5 -5 -5 -5 -5 -5 -6 -6 -6 -6 -6 -6 -5 -6 -6 -5 -6 -6 -6 -5 -3 -6 -6 -7 -7 -7 -6 -6 -6 -6 -5 -6 -6 -6 -5 -6 -6 -6 -5 -5 -5 -4 -4
-5 -5 -5 -5 -5 -5 -6 -6 -6 -6 -6 -6 -5 -5 -6 -6 -6 -6 -6 -6 -7 -7 -6 -6 -7 -6 -6 -6 -5 -6 -5 -5 -5 -6 -5 -5 -5 -5 -5 -5 -5 -5 -5
-5 -5 -5 -5 -5 -6 -6 -6 -6 -6 -6 -6 -6 -6 -6 -6 -6 -5 -6 -6 -6 -6 -7 -6 -7 -6 -6 -6 -6 -6 -6 -6 -6 -6 -6 -5 -5 -5 -6 -5 -5 -5 -5
-5 -6 -6 -6 -6 -6 -6 -6 -6 -6 -6 -6 -6 -6 -6 -6 -5 -5 -6 -6 -5 -6 -6 -6 -6 -6 -6 -6 -6 -6 -6 -6 -6 -6 -6 -6 -6 -6 -5 -5 -5 -5 -5
-6 -5 -6 -6 -6 -6 -6 -6 -6 -6 -6 -6 -6 -6 -6 -6 -6 -5 -6 -6 -6 -6 -6 -7 -6 -6 -5 -6 -6 -6 -6 -6 -6 -6 -6 -6 -6 -6 -6 -6 -5 -5 -5
-6 -6 -6 -6 -7 -7 -7 -6 -6 -6 -7 -7 -7 -7 -7 -7 -6 -6 -6 -6 -6 -6 -5 -6 -6 -6 -6 -6 -6 -6 -6 -6 -6 -6 -6 -6 -6 -6 -6 -6 -5 -5 -5
-7 -7 -7 -7 -7 -7 -7 -7 -7 -7 -7 -7 -7 -7 -7 -7 -7 -7 -7 -6 -6 -6 -6 -6 -6 -6 -6 -6 -7 -7 -7 -6 -6 -6 -7 -7 -6 -6 -6 -6 -6 -6 -6
-6 -6 -7 -7 -7 -7 -7 -7 -7 -7 -8 -8 -8 -8 -8 -7 -7 -7 -7 -6 -6 -6 -6 -6 -6 -5 -6 -7 -7 -7 -7 -7 -6 -6 -6 -6 -6 -7 -7 -6 -6 -6 -6
-6 -5 -6 -7 -7 -7 -7 -7 -7 -7 -8 -8 -8 -8 -8 -8 -8 -7 -7 -7 -7 -6 -6 -5 -5 -5 -6 -6 -7 -7 -8 -7 -6 -6 -6 -7 -6 -7 -7 -7 -7 -7 -6
-7 -6 -6 -6 -7 -7 -7 -7 -7 -8 -8 -8 -8 -8 -8 -8 -8 -8 -8 -8 -7 -7 -6 -6 -6 -6 -6 -6 -5 -6 -7 -7 -7 -6 -7 -6 -6 -7 -7 -7 -7 -7 -7
-7 -7 -7 -7 -7 -8 -8 -8 -7 -7 -7 -8 -8 -9 -8 -9 -8 -8 -8 -8 -7 -7 -8 -8 -6 -5 -6 -6 -6 -6 -6 -7 -7 -6 -7 -6 -6 -7 -7 -7 -7 -7 -7
-8 -8 -8 -8 -7 -7 -8 -8 -8 -7 -7 -7 -8 -8 -8 -8 -8 -8 -8 -8 -8 -7 -6 -8 -7 -6 -5 -6 -6 -6 -6 -6 -7 -7 -7 -7 -6 -6 -7 -7 -7 -7 -7
-8 -9 -9 -8 -8 -7 -8 -8 -8 -7 -7 -7 -7 -9 -8 -8 -7 -7 -7 -7 -7 -7 -5 -6 -7 -6 -6 -6 -6 -6 -7 -6 -7 -6 -6 -6 -6 -6 -7 -7 -7 -7 -7
-9 -9 -9 -9 -8 -8 -8 -8 -7 -7 -7 -8 -8 -8 -9 -7 -7 -7 -7 -7 -7 -7 -6 -6 -6 -6 -6 -6 -6 -6 -6 -6 -5 -6 -6 -6 -7 -6 -7 -7 -7 -7 -7
-8 -8 -7 -8 -8 -8 -8 -7 -7 -7 -7 -8 -8 -8 -8 -7 -7 -7 -6 -7 -8 -8 -7 -6 -7 -6 -6 -6 -6 -5 -5 -5 -6 -6 -6 -6 -6 -6 -7 -7 -7 -7 -7
-7 -7 -7 -7 -7 -7 -8 -8 -7 -7 -7 -7 -7 -8 -8 -7 -7 -7 -6 -7 -8 -8 -7 -7 -7 -6 -6 -5 -6 -6 -6 -6 -6 -6 -6 -6 -7 -6 -6 -7 -7 -7 -7
-7 -7 -7 -7 -7 -8 -7 -7 -8 -8 -8 -8 -7 -8 -8 -8 -8 -8 -8 -8 -8 -8 -7 -7 -7 -6 -7 -7 -7 -7 -6 -6 -7 -7 -7 -7 -7 -7 -7 -7 -7 -7 -7
-8 -8 -7 -7 -7 -7 -8 -7 -8 -8 -8 -8 -7 -7 -7 -8 -8 -8 -8 -7 -8 -8 -8 -7 -7 -7 -7 -7 -7 -7 -8 -8 -7 -7 -7 -7 -7 -7 -7 -7 -7 -7 -8
-8 -8 -8 -7 -7 -7 -8 -8 -8 -8 -8 -8 -7 -7 -7 -7 -8 -8 -8 -8 -8 -8 -8 -8 -7 -7 -7 -7 -8 -8 -8 -7 -7 -7 -6 -7 -7 -7 -7 -7 -7 -7 -7
-7 -8 -8 -8 -7 -7 -7 -8 -8 -8 -8 -8 -8 -7 -7 -7 -8 -8 -8 -8 -8 -9 -9 -8 -8 -7 -8 -8 -8 -8 -8 -8 -8 -8 -7 -7 -7 -7 -7 -7 -7 -7 -8
-8 -8 -8 -8 -7 -7 -7 -7 -8 -8 -8 -8 -8 -8 -8 -7 -7 -8 -8 -7 -8 -8 -9 -9 -8 -8 -8 -8 -8 -8 -9 -9 -9 -8 -8 -8 -8 -8 -7 -7 -7 -7 -7
-9 -8 -8 -8 -7 -7 -7 -7 -8 -8 -7 -7 -8 -7 -8 -7 -7 -8 -9 -8 -8 -9 -9 -9 -9 -9 -9 -8 -8 -9 -9 -9 -9 -9 -9 -8 -8 -8 -7 -7 -7 -7 -7
Height
5943 5942 5940 5940 5939 5937 5936 5937 5934 5934 5931 5929 5927 5930 5925 5926 5926 5927 5928 5925 5919 5922 5922 5922 5921 5921 5921 5920 5920 5921 5919 5922 5925 5924 5924 5926 5927 5926 5925 5923 5923 5922 5922
5942 5941 5940 5941 5939 5937 5937 5939 5936 5935 5933 5933 5932 5929 5925 5925 5925 5924 5900 5921 5920 5920 5922 5922 5921 5920 5922 5920 5918 5920 5920 5920 5923 5923 5922 5924 5924 5923 5923 5922 5922 5922 5921
5940 5940 5939 5939 5938 5935 5934 5935 5934 5934 5932 5932 5933 5931 5928 5925 5924 5917 5908 5917 5923 5918 5917 5923 5919 5916 5920 5920 5918 5918 5920 5918 5922 5923 5920 5920 5922 5923 5922 5921 5921 5921 5921
5940 5939 5938 5938 5936 5935 5934 5931 5931 5933 5931 5931 5931 5929 5926 5922 5922 5918 5903 5910 5915 5920 5911 5915 5919 5916 5917 5917 5918 5916 5918 5918 5919 5922 5920 5918 5920 5921 5921 5921 5920 5920 5920
5939 5938 5937 5936 5934 5933 5934 5931 5930 5930 5930 5929 5927 5926 5924 5923 5922 5921 5921 5907 5906 5914 5915 5917 5916 5917 5914 5914 5913 5915 5916 5916 5917 5921 5920 5919 5918 5919 5920 5920 5919 5920 5920
5938 5937 5935 5934 5933 5931 5931 5929 5927 5927 5927 5926 5925 5924 5925 5921 5921 5919 5919 5915 5913 5904 5880 5908 5914 5916 5911 5911 5909 5912 5917 5914 5915 5919 5919 5917 5918 5917 5919 5919 5919 5918 5919
5937 5936 5935 5933 5931 5930 5929 5928 5925 5924 5923 5923 5922 5921 5920 5918 5916 5921 5917 5913 5905 5914 5912 5907 5912 5910 5910 5906 5905 5908 5913 5914 5913 5915 5916 5915 5916 5917 5917 5917 5917 5917 5916
5938 5936 5934 5932 5930 5929 5927 5926 5925 5924 5921 5920 5917 5916 5915 5913 5913 5915 5912 5911 5910 5908 5910 5909 5914 5909 5908 5904 5903 5905 5908 5909 5911 5913 5913 5913 5913 5915 5916 5917 5917 5916 5916
5935 5933 5931 5929 5927 5926 5925 5923 5920 5919 5917 5916 5915 5914 5912 5909 5908 5910 5912 5908 5904 5905 5906 5907 5912 5907 5908 5905 5903 5903 5904 5905 5907 5909 5910 5910 5910 5912 5914 5914 5914 5914 5914
5932 5932 5930 5928 5926 5924 5922 5921 5920 5916 5913 5910 5910 5910 5908 5907 5907 5907 5908 5908 5905 5902 5901 5905 5909 5908 5908 5905 5902 5901 5904 5902 5901 5902 5903 5905 5905 5907 5908 5910 5911 5911 5912
5928 5926 5926 5925 5922 5921 5921 5919 5918 5916 5913 5909 5906 5904 5904 5903 5903 5903 5904 5903 5901 5900 5900 5901 5902 5905 5905 5898 5897 5898 5898 5900 5898 5897 5897 5898 5899 5901 5902 5905 5906 5907 5908
5928 5924 5921 5920 5919 5917 5916 5916 5915 5913 5911 5907 5905 5902 5899 5897 5896 5895 5895 5895 5894 5894 5895 5893 5891 5894 5894 5890 5892 5890 5892 5895 5895 5894 5894 5894 5895 5895 5897 5900 5902 5903 5905
5927 5924 5920 5916 5914 5912 5910 5910 5910 5908 5906 5903 5901 5898 5895 5892 5890 5889 5888 5887 5885 5883 5884 5885 5884 5882 5887 5886 5887 5886 5889 5888 5889 5888 5885 5888 5890 5891 5892 5893 5896 5898 5900
5919 5917 5915 5912 5909 5907 5904 5903 5903 5902 5900 5898 5895 5892 5890 5887 5884 5881 5879 5878 5879 5877 5874 5872 5874 5876 5879 5880 5882 5884 5883 5881 5883 5884 5885 5883 5884 5883 5886 5888 5890 5893 5895
5912 5910 5908 5905 5901 5899 5898 5896 5895 5895 5893 5891 5889 5886 5884 5882 5879 5876 5873 5870 5869 5869 5869 5863 5862 5868 5870 5872 5871 5872 5874 5871 5872 5873 5875 5876 5875 5875 5879 5882 5883 5886 5888
5901 5899 5898 5896 5894 5892 5891 5890 5889 5887 5885 5884 5883 5879 5876 5875 5873 5868 5865 5863 5860 5857 5856 5856 5854 5857 5861 5862 5861 5863 5862 5864 5862 5865 5868 5868 5867 5868 5871 5874 5875 5876 5880
5892 5889 5887 5884 5881 5879 5879 5880 5881 5878 5875 5874 5872 5870 5867 5865 5865 5861 5858 5854 5851 5846 5842 5846 5847 5850 5851 5852 5851 5851 5854 5855 5855 5857 5859 5860 5860 5862 5865 5867 5869 5871 5873
5880 5879 5876 5873 5871 5869 5867 5868 5869 5868 5865 5864 5860 5853 5858 5857 5856 5853 5849 5845 5840 5835 5833 5835 5838 5839 5840 5840 5838 5842 5845 5845 5847 5850 5851 5852 5854 5855 5858 5862 5863 5865 5866
5871 5868 5865 5862 5861 5859 5857 5856 5857 5858 5855 5853 5852 5851 5849 5849 5848 5844 5838 5832 5828 5828 5829 5827 5829 5829 5828 5827 5829 5830 5833 5833 5835 5839 5842 5847 5848 5849 5852 5855 5855 5856 5858
5859 5856 5852 5850 5848 5848 5848 5847 5847 5846 5845 5844 5844 5842 5841 5840 5839 5835 5827 5818 5819 5820 5823 5821 5821 5822 5821 5804 5817 5821 5821 5821 5827 5831 5834 5838 5840 5843 5846 5847 5848 5849 5850
5846 5844 5841 5839 5837 5836 5836 5836 5834 5836 5835 5834 5834 5832 5832 5832 5830 5827 5820 5812 5814 5817 5817 5814 5814 5814 5816 5814 5816 5815 5815 5817 5820 5822 5826 5829 5832 5835 5836 5837 5839 5840 5840
5834 5830 5829 5828 5827 5825 5825 5825 5824 5824 5824 5823 5823 5822 5821 5821 5821 5819 5816 5813 5810 5810 5809 5808 5807 5808 5808 5807 5807 5811 5811 5811 5814 5816 5818 5820 5822 5825 5826 5828 5828 5828 5830
5822 5820 5816 5816 5815 5814 5814 5814 5813 5811 5812 5813 5813 5812 5811 5811 5810 5810 5809 5807 5806 5802 5804 5805 5803 5802 5802 5802 5803 5804 5806 5808 5810 5812 5812 5813 5814 5816 5818 5818 5818 5820 5821
5807 5805 5804 5802 5802 5801 5801 5800 5800 5799 5799 5800 5800 5801 5802 5800 5800 5800 5800 5801 5800 5797 5797 5797 5798 5797 5795 5795 5796 5798 5801 5802 5804 5805 5805 5807 5806 5807 5807 5809 5809 5809 5810
5792 5790 5790 5789 5788 5787 5786 5785 5786 5786 5787 5787 5788 5789 5789 5789 5789 5789 5789 5790 5790 5790 5791 5791 5790 5790 5791 5790 5790 5791 5793 5795 5797 5796 5798 5800 5799 5799 5802 5803 5803 5802 5801
5778 5776 5776 5775 5774 5773 5771 5771 5771 5772 5774 5774 5775 5776 5776 5775 5775 5777 5778 5779 5779 5780 5782 5785 5786 5784 5783 5783 5783 5784 5786 5788 5789 5789 5791 5794 5793 5793 5794 5794 5793 5793 5792
Wind_Speed
7 5 7 10 9 10 12 13 14 15 17 19 20 6 1 1 2 7 7 5 7 7 5 4 3 4 5 5 5 6 8 8 5 4 3 4 4 4 4 5 6 7 7
8 10 11 10 11 12 11 12 16 17 17 17 20 22 6 9 8 5 16 1 2 7 4 3 4 3 2 4 5 4 5 9 7 7 7 5 5 4 5 6 6 6 7
10 11 12 13 14 15 16 14 14 18 18 17 16 17 14 9 12 12 3 9 7 4 7 4 4 3 6 2 4 6 5 7 4 5 8 6 5 5 7 8 8 6 6
11 11 12 13 15 17 17 20 21 18 18 15 15 13 15 13 13 19 11 12 11 6 6 1 7 3 7 6 3 5 4 4 3 4 5 7 6 5 6 7 8 8 8
12 12 13 12 15 17 17 18 19 20 16 17 16 14 17 18 15 18 20 13 9 10 6 3 2 3 2 8 6 4 5 4 3 5 5 4 4 4 6 7 8 7 7
10 11 12 13 13 15 15 17 18 17 18 20 19 16 16 17 17 19 21 25 19 15 14 4 6 5 3 7 8 6 7 6 5 6 6 5 4 5 5 6 9 10 9
13 14 14 16 16 16 15 16 17 17 18 17 17 19 17 16 17 15 18 20 27 16 7 7 10 7 4 6 9 11 11 7 6 8 8 6 7 7 6 6 6 8 9
12 13 15 14 13 14 15 16 16 15 17 16 18 17 18 19 17 16 18 13 15 11 14 14 15 9 8 4 10 14 13 11 10 10 10 9 9 8 6 5 4 4 5
11 13 11 13 13 13 10 11 14 14 16 16 16 19 18 19 20 18 18 14 14 11 13 11 17 14 12 8 7 13 15 13 13 14 13 12 10 10 9 9 8 7 7
10 12 12 12 12 13 14 14 13 14 16 19 18 18 20 19 19 20 17 17 18 20 12 13 12 14 14 14 11 12 16 17 17 17 16 17 15 14 14 14 12 11 9
11 9 9 12 14 14 15 13 15 16 17 18 20 21 20 20 20 19 20 20 21 21 22 21 17 17 17 18 19 17 15 18 17 19 21 20 19 17 16 18 17 15 12
17 17 16 17 15 15 19 19 21 22 22 24 23 24 24 22 23 21 21 19 20 25 24 24 26 21 18 23 26 22 16 21 27 23 21 19 20 19 19 20 20 18 16
25 25 23 18 22 18 17 20 24 26 28 27 24 26 27 28 28 26 25 25 25 26 26 29 30 30 22 24 24 25 24 24 25 28 21 20 16 18 20 20 21 21 20
23 30 28 26 20 23 23 24 23 27 30 29 28 29 30 33 31 31 29 26 25 25 28 26 30 30 30 29 28 25 31 28 28 33 30 23 20 17 20 22 22 21 21
28 28 28 30 24 22 27 30 33 30 33 32 27 29 30 33 34 31 29 31 31 28 30 29 30 28 28 26 28 29 29 34 31 38 32 27 20 14 18 18 21 25 24
35 23 29 30 30 28 28 31 36 38 37 36 29 31 31 33 32 30 32 35 37 36 32 34 33 28 26 24 27 29 30 29 24 39 33 28 25 22 18 21 20 24 25
31 36 37 36 35 34 34 34 37 40 42 40 35 33 31 31 31 33 34 36 38 36 35 29 31 28 26 25 28 27 27 33 35 28 32 25 20 17 17 20 22 20 23
42 41 44 44 39 37 40 38 32 40 40 36 37 34 30 31 32 38 39 39 40 29 27 26 28 27 23 26 28 27 27 28 28 28 24 23 23 20 19 19 21 24 22
44 43 45 46 46 44 44 42 33 31 35 39 38 40 35 32 36 38 43 42 39 25 23 22 23 27 26 21 25 22 25 30 25 25 24 24 22 21 21 23 28 28 28
46 46 46 46 44 42 42 41 38 36 37 39 36 35 31 30 34 34 40 32 32 20 21 23 22 25 24 18 28 22 29 21 21 21 20 23 26 26 27 30 32 31 30
47 45 45 46 46 45 43 42 40 37 38 39 35 35 31 32 32 26 32 18 11 15 21 21 21 20 19 16 26 24 18 18 21 23 26 26 29 30 30 31 33 33 34
49 50 47 46 45 46 43 41 42 38 37 35 35 39 37 34 33 26 22 19 18 16 20 22 17 18 15 18 17 15 26 16 20 21 24 27 28 32 32 31 31 31 31
48 47 48 46 43 45 45 41 42 42 38 35 38 40 41 39 37 26 23 21 18 14 20 20 15 16 15 16 17 21 19 21 24 23 19 23 24 27 30 32 30 30 35
50 47 41 43 42 43 45 46 43 43 42 40 42 42 42 43 41 33 29 29 25 19 21 20 18 17 15 16 17 19 21 18 20 20 16 21 23 25 25 26 32 34 30
46 47 40 41 44 45 47 46 43 40 40 41 41 40 41 41 39 38 32 31 29 25 22 20 20 17 18 18 19 20 20 18 18 19 18 17 18 18 17 16 17 17 17
41 41 43 44 47 47 46 45 45 43 42 41 42 42 43 43 42 40 37 32 36 34 27 22 20 18 17 18 20 21 21 19 18 19 20 19 20 22 21 19 19 20 21
Wind_Direction
7 6 351 347 354 339 333 342 334 334 353 343 328 311 73 242 18 342 324 302 347 303 320 335 8 38 64 94 106 108 114 113 124 110 108 112 101 106 117 106 117 123 115
324 325 328 333 334 327 325 337 330 334 344 356 353 10 23 18 339 283 255 318 30 33 349 342 340 341 336 124 120 109 119 118 128 126 113 98 109 107 110 119 117 124 117
312 312 315 320 318 317 321 325 327 339 341 345 350 2 353 349 300 282 127 303 331 29 6 291 300 209 246 219 137 130 125 111 133 150 140 132 126 114 115 104 110 116 115
311 312 312 313 313 311 316 324 329 339 333 327 337 346 328 309 303 282 325 242 316 321 45 214 287 296 242 205 195 154 161 131 140 168 154 140 140 137 117 116 121 129 135
324 319 314 310 306 308 313 313 321 324 331 322 324 325 308 313 314 299 293 284 265 247 254 260 352 300 268 219 197 216 204 188 169 195 175 175 166 161 147 138 139 151 151
339 332 326 320 314 311 315 312 314 322 326 322 315 316 314 312 326 324 320 321 295 324 233 321 293 299 299 229 209 221 243 199 208 214 210 200 190 175 176 171 157 153 153
346 347 346 339 332 325 321 321 321 320 315 313 313 308 316 316 316 323 334 336 316 315 303 316 309 304 315 210 214 216 235 238 212 212 214 200 188 191 196 189 181 168 164
3 354 347 339 332 332 332 327 320 315 308 310 311 315 310 306 310 317 323 322 340 297 339 320 297 280 279 278 215 217 228 234 239 235 221 213 206 210 196 216 222 198 179
351 348 340 327 325 320 312 314 315 317 318 312 312 307 305 305 310 314 318 307 314 309 306 300 302 297 281 281 250 228 228 232 236 241 238 230 227 244 239 225 227 232 224
327 327 335 341 324 322 317 315 314 313 315 314 312 310 306 305 305 309 304 299 300 307 282 297 289 276 276 284 269 251 241 235 234 236 237 240 237 241 246 251 247 242 249
315 321 327 338 332 317 309 310 310 311 307 303 304 307 308 312 316 311 303 294 286 280 278 279 276 261 264 271 267 257 252 260 246 240 236 234 235 239 246 249 255 257 255
278 284 299 301 301 310 316 308 304 302 301 301 304 304 304 301 303 311 313 303 290 280 281 284 280 274 272 278 287 282 269 266 265 256 244 237 236 236 242 251 254 259 261
307 292 282 289 288 281 289 296 298 297 299 301 305 307 306 302 301 305 301 304 297 291 283 271 278 279 276 278 279 283 272 261 262 262 233 228 250 247 241 247 254 257 258
306 300 298 281 270 273 287 287 283 290 294 297 297 302 303 302 300 301 299 306 290 281 280 280 267 274 278 281 276 278 280 273 259 266 259 255 249 254 246 245 251 257 261
298 298 299 296 282 270 281 286 289 291 292 293 293 297 298 301 300 302 298 302 296 291 272 266 272 263 265 278 264 276 271 281 278 256 260 254 244 245 245 254 259 258 255
298 306 303 295 292 279 281 284 286 288 291 294 289 291 296 297 296 299 300 299 295 287 285 256 260 274 281 277 267 266 268 278 265 250 244 250 250 246 239 249 266 256 253
294 303 303 301 293 287 289 285 278 281 284 285 284 282 292 293 293 303 299 299 303 299 286 253 257 268 280 272 264 257 250 254 272 244 240 237 238 249 248 258 259 263 258
301 302 299 299 295 289 287 286 281 274 277 281 279 277 290 283 295 300 300 299 296 298 280 248 260 270 279 269 260 253 252 249 257 248 253 241 240 248 249 254 258 250 251
297 295 295 293 292 289 287 289 286 274 275 279 285 293 289 286 292 302 303 290 296 281 271 265 269 275 274 265 244 257 250 253 250 257 252 241 244 240 249 253 249 251 255
296 294 291 289 289 287 284 283 284 282 276 281 287 289 288 287 301 308 309 296 291 264 264 270 272 275 279 279 239 260 253 231 244 249 252 241 240 244 250 255 260 263 259
294 291 288 287 284 282 280 284 285 279 275 279 280 284 287 293 300 310 326 330 303 296 276 278 284 271 268 277 274 270 226 231 234 237 247 245 250 248 247 259 259 261 268
290 288 284 282 280 278 278 276 281 279 275 271 273 278 284 291 297 295 300 308 295 312 324 309 285 284 278 293 291 278 308 309 278 274 260 255 254 255 261 258 263 266 266
284 281 281 279 279 279 279 276 274 277 271 269 269 275 281 287 288 288 287 287 287 302 308 307 296 288 290 289 291 293 294 283 275 272 264 257 257 252 257 255 259 264 258
284 279 275 277 278 279 278 276 273 273 273 272 272 274 278 278 280 279 274 275 282 287 299 293 296 297 300 297 298 294 293 286 280 284 284 272 267 266 274 273 271 272 266
280 277 274 277 282 284 282 280 276 271 270 272 273 274 272 273 272 275 272 274 277 280 286 288 291 299 302 298 295 294 288 283 277 280 279 280 277 273 271 273 276 274 270
283 277 281 281 282 282 279 278 276 273 271 273 272 271 272 274 274 272 270 269 273 278 284 286 279 291 302 300 290 288 283 276 273 274 271 266 266 270 275 270 269 271 271